Weather History for Torrington, WY

Change the Weather History Date:

Saturday, May 25, 2013

  Actual Average Record
Temperature  
Mean Temperature 71 °F 59 °F  
Max Temperature 87 °F 74 °F 87 °F (2006)
Min Temperature 54 °F 45 °F 33 °F (2001)
Degree Days  
Heating Degree Days 0 6  
Month to date heating degree days 233 244  
Since 1 July heating degree days 6450 6476  
Cooling Degree Days 6 1  
Month to date cooling degree days 34 3  
Year to date cooling degree days 34 4  
Growing Degree Days 20 (Base 50)    
Moisture  
Dew Point 51 °F    
Average Humidity 55    
Maximum Humidity 89    
Minimum Humidity 20    
Precipitation  
Precipitation 0.00 in 0.09 in 0.14 in (2012)
Month to date precipitation 0.79 1.78  
Year to date precipitation 3.24 4.79  
Sea Level Pressure  
Sea Level Pressure 29.79 in    
Wind  
Wind Speed 9 mph (ESE)    
Max Wind Speed 23 mph    
Max Gust Speed 29 mph    
Visibility 10 miles    
Events      
T = Trace of Precipitation, MM = Missing Value Source: NWS Daily Summary

Daily Weather History Graph

Daily Weather History Graph

Search for Another Location

Airport:

Trip Planner

Search our weather history database for the weather conditions in past years. The results will help you decide how hot, cold, wet, or windy it might be!

Date:

Astronomy

May. 25, 2013 Rise Set
Actual Time 5:27 AM MDT 8:20 PM MDT
Civil Twilight 4:54 AM MDT 8:53 PM MDT
Nautical Twilight 4:12 AM MDT 9:35 PM MDT
Astronomical Twilight 3:23 AM MDT 10:24 PM MDT
Moon 9:10 PM MDT (5/25) 5:56 AM MDT (5/25)
Length of Visible Light 15h 59m
Length of Day
14h 53m
Waxing Gibbous, 99% of the Moon is Illuminated
May 25
Waxing Gibbous
May 31
Last Quarter
Jun 8
New
Jun 16
First Quarter
Jun 23
Full

Hourly Weather History & Observations

Time (MDT) Temp. Dew Point Humidity Pressure Visibility Wind Dir Wind Speed Gust Speed Precip Events Conditions
12:53 AM 55.9 °F 51.1 °F 84% 29.81 in 10.0 mi ENE 6.9 mph - N/A   Clear
1:53 AM 57.0 °F 52.0 °F 83% 29.80 in 10.0 mi East 4.6 mph - N/A   Clear
2:53 AM 54.0 °F 50.0 °F 86% 29.81 in 10.0 mi ESE 4.6 mph - N/A   Clear
3:51 AM 55.4 °F 51.8 °F 88% 29.95 in 10.0 mi East 10.4 mph - N/A   Mostly Cloudy
3:53 AM 55.9 °F 52.0 °F 87% 29.81 in 10.0 mi ENE 9.2 mph - N/A   Mostly Cloudy
4:53 AM 57.0 °F 52.0 °F 83% 29.83 in 10.0 mi East 8.1 mph - N/A   Overcast
5:53 AM 59.0 °F 53.1 °F 81% 29.83 in 10.0 mi ESE 6.9 mph - N/A   Overcast
6:03 AM 59.0 °F 53.6 °F 82% 29.96 in 10.0 mi ESE 8.1 mph - N/A   Overcast
6:53 AM 59.0 °F 53.1 °F 81% 29.85 in 10.0 mi SE 6.9 mph - N/A   Overcast
7:53 AM 61.0 °F 55.0 °F 81% 29.86 in 10.0 mi Calm Calm - N/A   Overcast
8:53 AM 62.1 °F 55.0 °F 78% 29.86 in 10.0 mi Calm Calm - N/A   Overcast
9:53 AM 66.0 °F 55.9 °F 70% 29.86 in 10.0 mi SE 6.9 mph - N/A   Overcast
10:30 AM 68.0 °F 57.2 °F 68% 29.96 in 10.0 mi SE 8.1 mph - N/A   Scattered Clouds
10:53 AM 70.0 °F 57.0 °F 63% 29.84 in 10.0 mi SSE 9.2 mph - N/A   Clear
11:53 AM 73.0 °F 57.0 °F 57% 29.82 in 10.0 mi SE 9.2 mph - N/A   Clear
12:53 PM 79.0 °F 55.9 °F 45% 29.78 in 10.0 mi SE 6.9 mph - N/A   Clear
1:53 PM 79.0 °F 55.9 °F 45% 29.75 in 10.0 mi East 11.5 mph - N/A   Partly Cloudy
2:53 PM 84.9 °F 39.9 °F 20% 29.72 in 10.0 mi East 11.5 mph 17.3 mph N/A   Clear
3:11 PM 86.0 °F 42.8 °F 22% 29.86 in 10.0 mi SE 11.5 mph - N/A   Clear
3:53 PM 86.0 °F 45.0 °F 24% 29.70 in 10.0 mi SE 12.7 mph 25.3 mph N/A   Clear
4:53 PM 86.0 °F 44.1 °F 23% 29.68 in 10.0 mi ESE 19.6 mph 26.5 mph N/A   Clear
5:53 PM 84.9 °F 45.0 °F 25% 29.66 in 10.0 mi SE 19.6 mph 27.6 mph N/A   Clear
6:53 PM 79.0 °F 46.9 °F 32% 29.67 in 10.0 mi ESE 12.7 mph - N/A   Clear
7:53 PM 75.9 °F 46.9 °F 36% 29.68 in 10.0 mi ESE 11.5 mph - N/A   Clear
8:53 PM 72.0 °F 46.0 °F 40% 29.70 in 10.0 mi ESE 12.7 mph - N/A   Clear
9:53 PM 68.0 °F 48.0 °F 49% 29.73 in 10.0 mi ESE 10.4 mph - N/A   Clear
10:53 PM 64.9 °F 48.0 °F 54% 29.73 in 10.0 mi ESE 6.9 mph - N/A   Clear
11:53 PM 62.1 °F 48.0 °F 60% 29.73 in 10.0 mi East 8.1 mph - N/A   Clear